Terminal Aerodrome Forecast
Issued by NWS Chicago, IL

Home | Current Version | Previous Version | Graphics & Text | Print | Product List | Glossary On
Versions: 1 2 3 4 5 6 7 8 9 10 11 12 13 14 15 16 17 18 19 20 21 22 23 24 25 26 27 28 29 30 31 32 33
000
FTUS43 KLOT 170500
TAFRFD
TAF
KRFD 170520Z 1706/1806 00000KT P6SM SKC
     FM171400 24006KT P6SM FEW040 SCT080
     FM180200 VRB02KT P6SM SKC=

USA.gov is the U.S. government's official web portal to all federal, state and local government web resources and services.